Probability
0 0 0 0 0 0 0 0 0 0 0 0 0 0 0 0 0 0 0 0 0 0 0 0 0 0 0 0 0 0 0 1 3 8 17 28 34 37
0 0 0 0 0 0 0 0 0 0 0 0 0 0 0 0 0 0 0 0 0 0 0 0 0 0 0 0 0 0 0 0 2 7 15 25 33 36
0 0 0 0 0 0 0 0 0 0 0 0 0 0 0 0 0 0 0 0 0 0 0 0 0 0 0 0 0 0 0 0 1 4 10 19 28 32
0 0 0 0 0 0 0 0 0 0 0 0 0 0 0 0 0 0 0 0 0 0 0 0 0 0 0 0 0 0 0 0 0 1 4 9 17 23
0 0 0 0 0 0 0 0 0 0 0 0 0 0 0 0 0 0 0 0 0 0 0 0 0 0 0 0 0 0 0 0 0 0 0 2 8 13
0 0 0 0 0 0 0 0 0 0 0 0 0 0 0 0 0 0 0 0 0 0 0 0 0 0 0 0 0 0 0 0 0 0 0 0 3 6
0 0 0 0 0 0 0 0 0 0 0 0 0 0 0 0 0 0 0 0 0 0 0 0 0 0 0 0 0 0 0 0 0 0 0 0 1 2
0 0 0 0 0 0 0 0 0 0 0 0 0 0 0 0 0 0 0 0 0 0 0 0 0 0 0 0 0 0 0 0 0 0 0 0 0 1
0 0 0 0 0 0 0 0 0 0 0 0 0 0 0 0 0 0 0 0 0 0 0 0 0 0 0 0 0 0 0 0 0 0 0 0 0 0
0 0 0 0 0 0 0 0 0 0 0 0 0 0 0 0 0 0 0 0 0 0 0 0 0 0 0 0 0 0 0 0 0 0 0 0 0 0
0 0 0 0 0 0 0 0 0 0 0 0 0 0 0 0 0 0 0 0 0 0 0 0 0 0 0 0 0 0 0 0 0 0 0 0 0 0
0 0 0 0 0 0 0 0 0 0 0 0 0 0 0 0 0 0 0 0 0 0 0 0 0 0 0 0 0 0 0 0 0 0 0 0 0 0
0 0 0 0 0 0 0 0 0 0 0 0 0 0 0 0 0 0 0 0 0 0 0 0 0 0 0 0 0 0 0 0 0 0 0 0 0 0
0 0 0 0 0 0 0 0 0 0 0 0 0 0 0 0 0 0 0 0 0 0 0 0 0 0 0 0 0 0 0 0 0 0 0 0 0 0
0 0 0 0 0 0 0 0 0 0 0 0 0 0 0 0 0 0 0 0 0 0 0 0 0 0 0 0 0 0 0 0 0 0 0 0 0 0
0 0 0 0 0 0 0 0 0 0 0 0 0 0 0 0 0 0 0 0 0 0 0 0 0 0 0 0 0 0 0 0 0 0 0 0 0 0
0 0 0 0 0 0 0 0 0 0 0 0 0 0 0 0 0 0 0 0 0 0 0 0 0 0 0 0 0 0 0 0 0 0 0 0 0 0
0 0 0 0 0 0 0 0 0 0 0 0 0 0 0 0 0 0 0 0 0 0 0 0 0 0 0 0 0 0 0 0 0 0 0 0 0 0
0 0 0 0 0 0 0 0 0 0 0 0 0 0 0 0 0 0 0 0 0 0 0 0 0 0 0 0 0 0 0 0 0 0 0 0 0 0
0 0 0 0 0 0 0 0 0 0 0 0 0 0 0 0 0 0 0 0 0 0 0 0 0 0 0 0 0 0 0 0 0 0 0 0 0 0
0 0 0 0 0 0 0 0 0 0 0 0 0 0 0 0 0 0 0 0 0 0 0 0 0 0 0 0 0 0 0 0 0 0 0 0 0 0
0 0 0 0 0 0 0 0 0 0 0 0 0 0 0 0 0 0 0 0 0 0 0 0 0 0 0 0 0 0 0 0 0 0 0 0 0 0
0 0 0 0 0 0 0 0 0 0 0 0 0 0 0 0 0 0 0 0 0 0 0 0 0 0 0 0 0 0 0 0 0 0 0 0 0 0
Wind_Speed
14 15 13 11 11 11 11 11 12 13 14 16 13 12 11 12 16 16 17 23 28 30 32 33 34 34 35 35 35 36 36 36 36 36 35 35 34 32
12 14 14 11 11 11 11 11 12 13 14 13 14 14 15 13 19 19 19 27 30 31 32 33 33 34 34 35 35 35 35 35 35 35 35 34 33 31
15 15 16 15 11 11 11 11 12 12 15 16 15 15 18 18 17 17 17 18 18 28 31 32 33 34 34 34 35 34 34 34 33 34 33 33 31 30
17 16 16 13 15 13 12 13 13 13 15 19 17 15 19 19 19 19 17 16 17 25 31 32 33 34 34 34 33 33 32 32 32 32 32 31 30 29
16 16 16 15 16 13 14 13 12 13 14 16 17 15 15 15 18 18 19 17 17 20 26 29 31 32 32 32 32 32 31 31 30 30 30 30 29 28
16 15 15 16 16 16 13 15 14 14 15 15 16 15 15 16 15 14 14 14 15 15 19 22 26 30 30 30 30 30 29 29 29 28 28 28 27 26
15 16 16 19 21 17 13 13 14 13 13 14 15 15 14 13 13 13 15 15 16 14 15 15 15 15 16 21 25 26 27 27 27 27 27 27 26 25
16 16 16 19 22 26 27 25 22 17 15 14 15 16 17 16 15 14 15 17 17 12 14 15 14 15 14 14 20 24 25 26 26 27 26 26 25 24
16 14 13 13 18 15 19 23 23 25 25 18 18 19 18 17 17 19 17 18 18 15 15 17 15 15 14 15 24 26 26 26 26 26 26 25 24 24
16 16 15 15 14 14 13 14 16 16 18 14 15 16 17 17 16 17 18 19 19 15 14 16 15 15 14 13 21 25 26 25 25 26 25 24 23 23
16 16 16 15 18 20 15 16 17 15 17 22 23 22 25 26 21 14 14 15 16 14 11 13 14 14 14 14 15 21 23 23 24 25 24 24 23 21
13 14 20 19 19 20 15 15 16 14 12 13 15 17 16 17 21 14 13 13 15 14 10 10 11 10 10 9 8 9 11 17 21 22 23 23 22 14
11 10 11 19 21 21 19 14 15 14 13 12 12 11 11 10 11 10 11 11 13 14 10 10 11 11 11 11 10 9 8 8 9 13 18 22 22 18
11 9 10 16 18 19 16 15 18 16 10 10 10 10 10 10 10 10 12 13 14 16 15 14 13 12 12 13 11 9 8 7 8 8 9 15 19 22
11 14 14 16 16 14 14 15 14 10 9 10 10 10 10 10 11 10 12 12 14 15 15 16 15 13 12 13 12 10 9 7 7 8 8 9 10 11
13 14 17 17 13 11 11 10 8 8 9 9 10 10 10 10 10 10 10 10 11 11 11 13 14 14 13 13 12 11 9 7 5 5 6 7 8 9
10 8 7 7 8 8 7 7 7 7 8 8 9 10 10 10 10 9 9 10 11 11 11 9 9 10 13 12 11 11 10 9 9 8 7 7 8 9
12 8 9 8 8 8 7 7 7 7 7 8 8 9 9 10 10 10 10 10 11 11 10 9 8 8 8 10 16 13 10 9 8 8 7 7 8 9
11 9 9 8 8 7 7 7 7 7 7 7 8 9 9 9 10 10 10 10 10 10 10 9 8 8 9 8 8 16 11 8 7 7 7 8 8 8
9 9 8 7 7 7 7 7 7 7 7 7 8 8 9 9 10 10 10 11 11 11 10 9 8 8 9 8 6 5 14 10 7 7 7 6 6 6
9 8 7 7 6 6 6 6 7 7 8 7 8 9 9 9 10 10 10 14 13 11 11 10 9 12 9 7 8 7 7 14 12 7 6 6 7 7
8 8 7 7 6 6 6 6 6 7 8 8 8 8 8 9 10 12 11 11 10 10 11 10 9 8 7 9 9 9 7 5 12 18 16 11 5 6
7 7 6 6 6 5 5 6 7 7 7 7 8 8 8 9 9 10 10 11 10 11 11 10 8 7 8 8 9 8 9 7 5 6 9 14 17 16
Wind_Direction
219 222 229 236 238 242 246 251 263 277 281 285 287 285 284 280 279 278 277 278 279 280 279 278 278 278 279 280 280 281 282 283 283 285 284 283 279 273
217 223 227 233 236 239 243 246 248 258 271 279 285 285 286 281 279 279 278 279 280 280 279 279 278 279 279 279 279 278 279 279 280 283 283 282 280 276
216 222 229 232 237 240 241 244 247 249 262 273 278 283 284 282 280 278 277 277 276 277 277 278 278 278 278 277 276 276 276 277 278 281 282 281 283 283
218 221 229 229 234 240 242 245 247 250 258 272 278 282 282 282 281 280 279 276 275 277 278 278 278 278 277 276 275 274 275 275 276 278 281 281 282 285
218 221 227 228 235 237 240 245 248 252 255 265 274 278 279 279 281 280 279 277 277 276 278 277 277 277 277 275 274 273 272 272 273 274 278 280 281 283
218 222 226 228 233 238 242 246 250 255 258 263 269 275 278 281 281 283 283 281 280 281 280 278 276 276 275 274 273 272 271 270 271 272 274 277 280 283
219 224 228 230 233 236 238 243 247 252 258 264 271 277 280 284 285 288 288 288 284 282 282 278 277 273 273 271 270 268 268 267 268 269 270 273 275 279
220 225 230 235 239 244 247 250 251 256 264 271 276 278 282 287 292 290 289 288 287 284 282 280 277 274 271 267 266 266 266 265 264 265 264 267 270 274
220 225 228 231 236 240 250 258 263 266 267 269 273 277 285 289 290 288 284 284 284 290 288 281 278 274 272 268 268 266 264 262 260 261 260 263 267 269
219 224 230 234 233 237 243 252 256 259 262 263 266 272 276 279 280 283 287 286 283 278 274 277 278 276 276 272 269 265 262 260 257 257 256 258 262 265
223 226 231 238 242 243 247 254 260 262 265 266 266 271 277 284 288 289 287 286 285 285 281 276 280 282 280 274 269 265 261 258 254 251 250 251 255 258
224 226 231 236 242 245 246 254 262 269 272 275 275 277 279 281 283 279 280 281 283 287 282 275 278 285 284 274 273 274 264 256 251 248 245 244 246 249
221 222 225 233 240 246 250 255 264 274 281 279 277 276 277 274 273 270 267 270 275 274 278 282 279 278 274 283 291 286 276 265 250 243 239 237 238 237
221 223 226 232 239 248 254 259 269 280 279 277 278 281 283 284 283 282 276 269 266 270 275 273 271 271 274 276 278 283 278 268 254 241 230 225 229 232
221 226 231 236 243 251 255 264 273 273 271 274 278 283 286 287 287 284 280 273 269 266 265 261 259 261 259 264 271 276 284 274 263 246 231 221 215 215
225 230 235 240 243 250 256 262 261 261 267 273 279 284 287 287 286 287 289 289 286 282 271 262 258 256 256 256 260 266 267 267 262 263 246 229 220 215
210 216 221 226 232 238 243 249 253 258 264 268 277 284 287 289 290 291 289 289 287 290 292 284 266 255 251 253 254 254 255 255 253 252 249 229 220 216
205 213 220 225 232 239 246 251 253 259 265 272 277 282 286 290 292 293 290 289 289 289 290 291 287 273 253 243 233 247 250 252 247 238 233 226 217 213
209 215 220 224 230 238 245 251 257 263 269 272 275 280 285 288 291 293 293 292 291 290 289 287 281 273 267 267 241 215 229 241 239 232 225 223 218 210
211 218 221 224 229 237 243 249 258 265 267 270 275 279 283 287 290 292 294 295 295 294 291 285 276 268 265 275 287 259 219 232 237 230 223 222 229 230
208 216 221 223 228 235 242 248 257 264 270 275 277 280 284 287 290 292 294 295 295 292 291 289 284 282 276 270 263 258 242 221 233 239 222 211 206 203
207 214 217 222 226 232 239 247 256 264 270 273 278 282 285 287 290 293 294 295 293 290 290 288 285 275 252 246 252 260 260 239 227 242 256 260 231 197
205 210 213 216 222 228 236 246 256 266 272 278 282 285 289 290 291 293 294 292 292 291 291 291 287 273 256 247 249 252 254 247 229 217 234 242 250 265